CAPE
0 0 0 0 0 0 0 0 0 0 0 0 0 0 0 0 0 0 0 572 741 488 444 379 373 381 616 776 1255 1290 1130 1049 844 684 542 492 518 499 502 569 628 643 620 614 329 185 53 0 2 39 26 59 116 147 240 656 538 827 897 1081 1066 1101 989 772 512 447 192 288 562 294 183 110 544 1317 1738 1798 1952 2190 2288 2522 2696 2715 2514 2520 2881 2754
0 0 0 0 0 0 0 0 0 0 0 0 0 0 0 0 0 0 0 337 668 390 438 385 374 495 710 782 1196 1238 963 923 844 709 516 482 430 444 504 474 517 578 622 597 362 239 95 188 1 8 1 60 40 58 162 103 286 740 857 958 945 944 897 763 486 539 232 148 586 281 85 6 6 1072 1521 1684 1735 2151 2437 2513 2536 2676 2591 2724 2862 2790
0 0 0 0 0 0 0 0 0 0 0 0 0 0 0 0 0 0 0 47 498 365 388 442 393 563 791 963 1155 1143 994 905 872 765 557 522 527 484 440 548 537 545 604 599 463 304 146 42 0 1 0 3 10 4 95 46 247 502 796 843 728 857 831 766 516 528 243 170 522 182 17 0 57 1038 905 1324 1666 2211 2515 2538 2519 2688 2732 2910 2851 2872
0 0 0 0 0 0 0 0 0 0 0 0 0 0 0 0 0 0 0 0 318 488 483 456 376 480 807 1120 1265 1039 903 846 820 762 749 667 606 508 500 525 520 513 548 600 507 271 194 87 2 2 0 0 0 2 30 50 229 562 739 737 633 810 823 790 626 770 247 378 443 102 1 0 322 761 699 1352 1979 2272 2478 2559 2610 2672 2818 3086 3009 3096
0 0 0 0 0 0 0 0 0 0 0 0 0 0 0 0 0 0 0 0 0 0 79 383 752 864 876 1174 1368 1242 977 876 881 769 770 742 617 522 465 415 490 530 555 541 441 305 223 132 43 17 0 0 0 0 8 54 222 573 708 690 605 741 787 742 687 821 320 1108 431 278 48 84 302 473 914 1758 2102 2242 2404 2503 2667 2662 2845 3270 3202 3205
0 0 0 0 0 0 0 0 0 0 0 0 0 0 0 0 0 0 0 0 0 0 150 633 706 853 1043 1100 1266 1312 1196 1042 1043 1004 850 728 669 567 473 506 426 429 504 540 524 486 275 189 109 47 14 1 0 0 4 22 182 468 652 637 586 684 698 662 745 856 591 1035 342 257 92 55 140 244 1195 1806 2043 2164 2281 2462 2662 2682 2910 3307 3343 3220
0 0 0 0 0 0 0 0 0 0 0 0 0 0 0 0 0 0 0 0 0 136 351 489 577 672 884 1126 1144 1270 1216 1135 1060 979 881 853 964 920 782 551 656 490 470 490 489 340 288 284 313 125 52 25 0 0 1 22 110 392 575 472 618 663 658 686 823 1008 784 963 322 284 171 32 43 314 1041 1578 1924 2079 2167 2182 2628 2680 2899 3061 3196 3186
0 0 0 0 0 0 0 0 0 0 0 0 0 0 0 0 0 0 0 0 0 88 275 12 157 451 692 922 1092 1149 1247 1207 1140 1090 1057 938 1092 1139 989 676 718 593 525 547 502 484 420 369 359 258 137 136 3 0 0 16 39 370 373 372 581 645 721 760 936 1110 678 807 372 313 167 62 7 70 232 1247 1786 2005 2026 2087 2467 2594 2785 2871 2943 2867
0 0 0 0 0 0 0 0 0 0 0 0 0 0 0 0 0 0 0 0 0 0 0 0 4 27 101 536 871 996 1142 1151 1117 1088 1123 1087 1178 1240 1148 946 718 744 710 652 574 562 531 475 430 386 342 283 150 0 3 3 11 340 344 428 589 662 744 761 1030 1116 737 843 492 358 166 112 44 23 12 753 1595 1778 1978 1886 2303 2511 2527 2658 2558 2422
0 0 0 0 0 0 0 0 0 0 0 0 0 0 0 0 0 0 0 0 0 0 0 0 0 0 0 21 648 963 1027 1102 1074 991 1122 1087 1224 1330 1258 1122 891 700 751 719 646 615 595 520 478 435 408 273 390 398 0 124 245 290 328 443 643 708 740 692 1034 1179 886 764 722 343 88 130 32 143 41 24 761 1576 1750 1774 2013 2188 2206 2281 2334 2254
0 0 0 0 0 0 0 0 0 0 0 0 0 0 0 0 0 0 0 0 0 0 0 0 0 0 0 7 649 920 1003 943 870 857 1009 1184 1226 1381 1326 1255 1128 853 703 753 724 677 639 585 509 454 411 430 427 418 429 446 437 274 306 429 602 768 848 787 976 1128 1040 737 636 305 74 142 51 36 6 14 36 1042 1517 1554 1867 2008 1936 2029 2198 2301
0 0 0 0 0 0 0 0 0 0 0 0 0 0 0 0 0 0 0 0 0 0 0 0 0 0 0 0 252 809 961 940 848 725 752 1077 1239 1458 1396 1254 1164 1070 882 694 643 728 683 620 520 478 445 448 454 449 460 459 457 182 331 425 505 698 894 864 863 1104 1050 887 530 242 38 91 65 33 6 15 116 30 1157 1374 1549 1812 1930 1930 1838 1970
0 0 0 0 0 0 0 0 0 0 0 0 0 0 0 0 0 0 0 0 0 0 0 0 0 0 0 0 73 667 803 821 798 751 831 975 1163 1446 1488 1359 1207 1076 907 782 687 685 712 679 629 590 546 505 490 494 496 517 507 496 374 412 447 588 831 969 788 992 1071 1062 675 178 11 24 90 37 1 0 94 5 26 1007 1282 1475 1656 1844 1449 1794
0 0 0 0 0 0 0 0 0 0 0 0 0 0 0 0 0 0 0 0 0 0 0 0 0 0 0 0 0 532 745 769 791 720 765 1016 1147 1387 1549 1408 1237 1049 953 859 718 694 719 686 651 616 587 555 549 558 546 543 550 527 472 410 441 517 635 1017 796 836 928 965 837 128 8 0 283 52 0 0 51 70 0 76 1103 1308 1408 1716 1530 1392
0 0 0 0 0 0 0 0 0 0 0 0 0 0 0 0 0 0 0 0 0 0 0 0 0 0 0 0 0 408 590 617 628 710 682 771 1133 1392 1552 1517 1304 1094 982 926 836 740 705 661 669 651 625 605 596 579 585 562 541 511 491 389 491 555 498 908 858 618 786 834 806 86 4 0 314 70 0 0 6 56 9 31 668 1185 1282 1495 1493 1226
0 0 0 0 0 0 0 0 0 0 0 0 0 0 0 0 0 0 0 0 0 0 0 0 0 0 0 0 0 7 308 422 518 645 558 588 761 1261 1495 1502 1421 1251 1004 933 930 859 783 723 696 651 638 634 609 604 586 537 499 498 496 423 485 578 584 685 889 568 532 574 717 54 4 0 167 327 2 0 0 0 4 32 353 994 1204 1297 1438 1256
0 0 0 0 0 0 0 0 0 0 0 0 0 0 0 0 0 0 0 0 0 0 0 0 0 0 0 0 0 0 0 6 398 440 517 496 512 1066 1360 1401 1372 1259 1039 833 822 836 824 755 732 687 650 634 618 581 535 504 502 512 539 551 568 580 691 681 854 559 407 427 347 81 4 1 38 298 31 0 0 0 0 1 228 653 1102 1224 1317 1390
0 0 0 0 0 0 0 0 0 0 0 0 0 0 0 0 0 0 0 0 0 0 0 0 0 0 0 0 0 0 0 0 19 335 452 452 485 884 1179 1270 1260 1206 1032 769 727 725 785 771 703 675 647 623 605 585 567 561 554 588 616 616 637 640 630 807 858 657 379 331 330 168 10 4 2 160 105 0 0 0 0 0 43 319 828 1175 1239 1367
0 0 0 0 0 0 0 0 0 0 0 0 0 0 0 0 0 0 0 0 0 0 0 0 0 0 0 0 0 0 0 0 4 94 223 377 705 890 976 1048 1075 1006 902 721 778 772 812 825 723 677 691 654 664 646 624 623 638 677 662 661 680 694 689 876 972 810 491 288 309 266 70 8 4 16 107 20 0 0 0 0 0 149 762 1114 1171 1270
0 0 0 0 0 0 0 0 0 0 0 0 0 0 0 0 0 0 0 0 0 0 0 0 0 0 0 0 0 0 0 0 0 102 185 402 842 954 942 921 878 818 729 742 869 864 859 863 808 679 653 673 705 718 703 700 815 885 944 781 731 766 771 820 1036 1050 742 381 294 288 165 18 9 7 13 21 8 0 0 0 0 0 205 459 1084 1195
0 0 0 0 0 0 0 0 0 0 0 0 0 0 0 0 0 0 0 0 0 0 0 0 0 0 48 187 188 163 99 42 0 27 142 392 799 950 957 907 808 729 664 729 932 980 956 915 862 768 660 640 690 746 759 866 942 968 1042 1069 824 842 836 811 967 1082 917 631 326 306 240 88 9 7 0 0 0 15 1 0 0 0 0 295 516 820
0 0 0 0 0 0 0 0 0 0 0 0 0 0 0 0 0 0 0 0 0 0 0 0 0 0 184 309 241 200 122 44 0 1 68 298 703 895 928 914 825 744 663 727 940 1064 1063 1011 933 830 724 587 584 776 814 941 1008 1049 1100 1221 1116 914 886 908 894 1096 1082 837 578 302 270 208 34 5 5 0 0 0 26 30 6 0 0 47 292 562
0 0 0 0 0 0 0 0 0 0 0 0 0 0 0 0 0 0 0 0 0 0 0 0 0 0 34 237 242 210 153 95 95 30 88 208 542 845 939 914 877 783 692 722 943 1118 1112 1076 1020 928 823 740 656 772 882 970 1015 1104 1174 1289 1301 1163 1040 965 973 970 1154 1051 804 545 310 266 169 28 1 0 0 0 0 69 169 121 48 40 121 300
0 0 0 0 0 0 0 0 0 0 0 0 0 0 0 0 0 0 0 0 0 0 0 0 0 0 0 150 255 198 156 149 149 304 324 337 565 784 982 958 907 810 749 780 930 1124 1170 1110 1052 987 904 838 768 694 901 971 1024 1086 1204 1343 1458 1392 1304 1220 1071 1045 1072 1132 993 792 536 366 295 155 21 0 0 0 0 0 66 353 268 184 170 200
0 0 0 0 0 7 12 9 0 0 0 0 0 0 0 0 0 0 0 0 0 0 0 0 0 0 0 0 184 223 166 325 481 388 294 242 312 650 1011 1102 990 911 873 914 1026 1178 1201 1144 1100 1052 969 893 827 782 953 969 1034 1072 1173 1376 1554 1571 1531 1466 1325 1157 1114 1071 998 906 761 548 430 317 164 22 0 0 0 0 0 42 328 325 283 283
0 0 0 0 0 0 33 22 12 12 5 1 3 0 0 0 0 0 0 0 0 0 0 0 0 0 0 0 116 207 207 247 456 452 322 335 345 646 925 1198 1241 1116 1072 1117 1135 1204 1287 1228 1154 1117 1072 960 910 1015 1065 1043 1062 1102 1158 1344 1565 1685 1690 1667 1628 1459 1250 1186 1120 1063 944 720 546 442 308 146 12 0 0 0 0 0 4 199 255 282
0 0 0 0 0 0 1 29 29 20 14 3 2 3 1 1 0 0 0 0 0 0 0 0 0 10 5 1 42 155 237 219 389 470 294 304 365 608 832 984 1156 1191 1166 1183 1205 1209 1263 1289 1209 1135 1072 1027 955 922 1117 1184 1119 1152 1191 1292 1526 1707 1781 1809 1828 1765 1601 1520 1454 1317 1131 1036 807 535 406 282 132 5 0 0 0 0 0 0 44 111
0 0 0 0 0 0 0 3 25 23 25 12 8 11 13 6 2 0 0 0 0 0 0 0 0 10 25 28 155 278 253 205 229 373 367 346 389 644 772 1023 938 924 1068 1121 1146 1172 1185 1224 1215 1149 1068 1010 1000 971 952 1137 1244 1236 1258 1323 1517 1735 1842 1917 1935 1935 1874 1811 1752 1663 1592 1245 1084 896 670 387 245 104 8 0 0 0 0 0 0 0
0 0 0 0 0 0 0 0 11 24 19 26 16 22 28 14 4 0 1 0 0 0 0 0 0 5 18 260 310 242 206 262 149 335 595 585 517 540 698 662 678 808 780 868 998 918 1065 1154 1178 1201 1113 1050 998 978 1025 1079 1125 1200 1258 1316 1534 1772 1938 2004 2031 2040 2030 1994 1972 1975 1902 1821 1542 1159 1104 996 724 278 112 16 0 0 0 0 0 0
0 0 0 0 0 0 0 0 0 18 27 36 26 23 25 21 6 5 6 3 1 3 8 8 1 10 317 320 238 184 74 220 160 96 415 463 546 556 601 712 743 738 859 907 994 1034 1095 1226 1259 1252 1202 1145 1173 1045 1053 1192 1162 1134 1181 1268 1423 1806 2018 2114 2136 2143 2158 2141 2175 2162 2147 2103 1990 1783 1539 1317 1182 974 604 156 46 9 0 0 0 0
0 0 0 0 0 0 0 0 0 0 15 30 39 29 32 30 19 14 11 13 14 11 27 29 14 84 260 285 273 206 138 94 190 63 284 324 523 684 678 712 759 814 799 893 937 1005 1149 1230 1317 1379 1440 1438 1422 1371 1314 1353 1480 1374 1350 1345 1412 1698 2067 2240 2274 2285 2298 2332 2310 2332 2360 2351 2296 2143 1968 1784 1597 1460 1219 856 363 154 76 33 7 0
0 0 0 0 0 0 0 0 0 0 0 3 39 42 40 50 48 42 21 16 17 21 31 47 30 10 119 166 172 203 122 57 64 4 28 268 403 540 758 681 797 814 854 902 961 1084 1223 1285 1339 1458 1526 1562 1678 1519 1478 1350 1470 1543 1564 1500 1472 1627 1885 2213 2365 2409 2488 2541 2535 2534 2495 2503 2473 2412 2298 2167 2035 1828 1582 1302 1000 649 251 179 143 110
0 0 0 0 0 0 0 0 0 0 0 0 7 59 50 45 57 59 43 24 19 25 34 67 50 22 28 76 60 101 142 136 63 20 2 59 281 438 583 677 832 835 890 912 941 1028 1110 1185 1229 1328 1482 1654 1686 1707 1525 1590 1321 1464 1580 1647 1618 1600 1757 2021 2238 2417 2542 2665 2730 2708 2634 2533 2511 2484 2431 2364 2234 2072 1866 1627 1410 1104 721 403 283 233
0 0 0 0 0 0 0 0 0 0 0 0 0 2 53 52 53 74 59 48 39 31 38 54 63 26 37 115 26 43 138 88 26 25 11 0 139 289 538 428 580 800 760 778 862 834 868 1031 1093 1105 1156 1365 1562 1685 1568 1437 1554 1261 1414 1538 1670 1689 1692 1744 1993 2185 2346 2467 2563 2731 2786 2781 2704 2630 2544 2490 2404 2221 2080 1914 1722 1495 1134 720 514 359
0 3 0 0 0 0 0 0 0 0 0 0 0 0 0 7 49 62 64 44 41 44 60 58 49 53 121 128 136 105 117 226 173 16 0 0 116 271 414 415 518 460 473 59 259 554 747 850 862 968 1038 1068 1196 1225 1304 1201 1186 1606 1531 1475 1544 1554 1607 1673 1708 1979 2161 2301 2440 2606 2761 2851 2840 2798 2749 2675 2577 2454 2344 2194 1897 1648 1340 964 765 599
0 0 0 17 0 0 0 0 0 0 0 0 0 0 16 69 3 28 42 51 37 39 34 39 23 40 45 55 153 132 146 153 180 26 11 3 12 153 370 263 269 272 325 0 31 147 317 416 656 648 853 964 926 940 1102 1282 1340 1642 1733 1724 1634 1762 1742 1661 1720 1882 2046 2178 2223 2330 2545 2663 2698 2684 2758 2774 2727 2689 2605 2477 2357 2113 1550 1224 961 824
0 0 0 0 0 0 0 0 0 0 0 0 0 18 0 0 0 1 20 24 20 0 12 28 27 16 31 28 0 31 88 86 12 18 5 15 1 0 7 188 227 164 120 113 22 150 126 188 173 529 607 634 559 514 976 1432 1466 1565 1638 1647 1882 1821 1775 1816 1732 1745 1874 1991 2079 2211 2334 2426 2468 2494 2484 2596 2721 2720 2708 2647 2568 2501 2268 1592 1226 978
0 0 0 0 0 0 0 0 0 0 0 0 6 17 0 0 0 0 0 0 118 0 0 0 29 36 15 22 6 0 4 33 34 30 21 0 6 2 0 0 88 131 137 18 0 0 0 0 208 266 309 440 123 0 944 1212 1447 1238 1300 1468 1645 1905 1914 1881 2010 2000 1894 1844 1858 1886 2043 2181 2264 2313 2353 2486 2614 2687 2687 2676 2689 2693 2538 2211 1611 1290
0 0 0 0 1 1 1 0 0 0 0 2 0 0 0 0 0 0 0 6 79 22 0 0 0 28 33 14 8 0 20 38 53 23 1 0 0 0 7 2 0 33 56 1 0 0 0 50 54 0 0 0 0 201 608 913 1147 1325 1514 1773 1827 1473 1384 1723 1774 2020 2064 2071 2031 2016 1992 1966 2046 2052 2114 2297 2466 2610 2662 2691 2705 2693 2565 2395 2070 1459
0 0 0 0 0 1 5 4 0 0 0 0 1 1 0 0 9 0 0 13 18 0 0 0 0 2 26 22 0 7 21 31 34 36 0 0 0 0 0 0 3 0 5 60 11 0 0 0 24 4 0 0 0 37 398 889 1363 1446 1683 1846 1967 2003 1942 1792 1430 1496 1744 1918 2076 2072 2043 1997 1899 1917 2046 2293 2347 2434 2565 2638 2664 2624 2551 2427 2215 1851
0 0 0 0 0 33 8 2 0 0 57 0 0 0 0 16 28 3 0 25 1 0 0 0 2 0 0 9 1 0 3 0 6 0 0 0 0 0 0 0 0 0 0 0 38 0 0 0 0 0 42 0 0 124 473 604 933 1375 1599 1725 1878 2144 2244 2009 1900 1786 1647 1564 1628 1722 1992 2014 1939 1826 2036 2254 2385 2450 2519 2569 2586 2567 2524 2414 2250 2002
0 0 0 0 0 0 2 0 0 0 138 0 0 0 63 63 33 8 2 0 0 0 0 2 3 0 0 0 0 0 0 0 0 0 0 0 0 0 0 0 0 0 0 0 0 0 0 0 0 0 0 0 0 0 481 687 779 1038 1413 1587 1802 2330 2855 3187 3150 2554 2146 2008 1587 1597 1654 1695 1769 1824 1951 2256 2380 2447 2473 2516 2547 2538 2508 2416 2265 2043
0 0 0 0 0 0 0 4 6 7 17 0 3 3 44 4 0 22 0 0 0 0 0 0 0 2 0 0 0 0 0 0 0 0 0 0 0 0 0 0 0 0 0 0 0 0 0 0 0 0 0 0 0 0 0 655 779 962 1154 1408 1869 2517 3071 3491 3859 4046 3703 3407 2699 2006 1392 1605 1657 1656 1637 2240 2463 2460 2492 2541 2551 2528 2485 2420 2294 2102
0 0 0 0 0 3 0 4 12 2 0 6 0 0 0 3 0 0 0 0 0 0 0 0 0 0 0 0 0 0 0 0 0 0 0 0 0 0 0 0 0 0 0 0 0 0 0 0 0 0 0 0 0 0 0 269 654 846 1097 1415 1733 2186 2868 3432 3809 3943 3983 3886 3721 3286 2601 2013 1516 1486 1522 2051 2473 2526 2515 2521 2537 2521 2487 2422 2313 2182
0 0 0 0 1 0 0 0 0 0 22 0 1 0 0 0 24 56 4 0 0 0 0 0 0 0 0 0 0 0 0 0 0 0 0 0 0 0 0 0 0 0 0 0 0 0 0 0 0 0 0 0 0 0 0 15 166 548 807 1154 1490 1807 2347 2945 3456 3684 3693 3642 3631 3543 3177 2618 2128 1664 1579 1977 2386 2552 2582 2603 2596 2561 2504 2447 2376 2275
0 0 0 0 0 0 0 0 0 0 0 0 0 1 0 1 0 0 0 0 0 0 0 0 0 0 0 0 0 0 0 0 0 0 0 0 0 0 0 0 0 0 0 0 0 0 0 0 0 0 0 0 0 0 0 0 3 104 593 902 1247 1610 2274 2948 3176 3057 2943 3041 3230 3667 3552 2885 2412 1950 1713 2091 2418 2549 2568 2575 2569 2563 2538 2488 2416 2322
0 0 0 0 0 0 0 0 0 0 0 0 2 2 1 0 0 0 0 0 0 0 0 0 0 0 0 0 0 0 0 0 0 0 0 0 0 0 0 0 0 0 0 0 0 0 0 0 0 0 1 2 1 0 0 0 0 0 384 624 873 1485 1957 2174 2360 2425 2583 2882 3061 3476 3853 3347 2493 2105 1778 2294 2543 2673 2681 2623 2602 2572 2542 2494 2457 2363
0 0 0 0 0 0 0 0 0 0 0 0 0 0 0 0 0 0 0 0 0 0 0 0 0 0 0 0 0 0 0 0 0 0 0 0 0 0 0 0 0 0 0 0 0 0 0 0 0 0 5 4 2 1 0 0 0 0 345 510 760 1064 1558 1985 2228 2222 2490 2932 3165 3439 3859 3596 2616 2042 1976 2395 2667 2805 2823 2770 2709 2648 2600 2552 2476 2419
0 0 0 0 0 0 0 0 0 0 0 0 0 0 0 0 0 0 0 0 0 0 0 0 0 0 0 0 0 0 0 0 0 0 0 0 0 0 0 0 0 0 0 0 0 0 0 0 0 1 6 2 1 1 0 0 0 0 206 429 598 767 953 1120 1378 1976 2373 2936 3252 3420 3887 3721 2997 1962 2352 2672 2719 2832 2915 2926 2839 2771 2710 2626 2544 2466
0 0 0 0 0 0 0 0 0 0 0 0 0 0 0 0 0 0 0 0 0 0 0 0 0 0 0 0 0 0 0 0 0 0 0 0 0 0 0 0 0 0 0 0 0 0 0 0 0 1 4 0 0 0 2 1 0 81 232 375 523 652 796 966 1137 1708 2198 2825 3263 3421 3976 3850 3132 2184 2226 2799 3012 2990 3055 3040 2984 2915 2855 2798 2689 2625
0 0 0 0 0 0 0 0 0 0 0 0 0 0 0 0 0 0 0 0 0 0 0 0 0 0 0 0 0 0 0 0 0 0 0 0 0 0 0 0 0 0 0 0 0 0 0 0 0 0 4 0 0 1 18 178 164 194 234 297 405 518 674 833 1018 1399 2018 2739 3173 3476 4103 3995 3349 2530 2412 2646 2987 3199 3270 3254 3173 3131 3058 3077 2965 2960
Wind_Speed
nan nan nan nan nan nan nan nan nan nan nan nan nan nan nan nan nan nan nan 10 11 12 8 7 3 5 12 17 18 18 13 11 11 12 12 12 13 11 11 12 12 11 10 8 8 4 nan nan nan nan nan nan 7 5 5 4 3 1 3 6 8 15 15 13 12 12 10 10 9 11 10 9 8 7 8 7 6 4 4 3 4 5 5 4 4 4
nan nan nan nan nan nan nan nan nan nan nan nan nan nan nan nan nan nan nan 13 9 10 5 3 5 6 13 16 18 16 14 14 13 12 12 13 14 13 14 13 13 11 9 9 7 5 nan 9 nan nan nan nan nan nan 5 5 3 1 3 4 8 16 15 13 11 11 10 10 8 8 nan nan nan 7 7 8 7 5 4 4 4 4 4 3 3 5
nan nan nan nan nan nan nan nan nan nan nan nan nan nan nan nan nan nan nan nan 9 8 9 12 12 8 11 16 16 17 19 15 13 14 14 13 13 12 12 13 12 11 10 10 9 8 5 nan nan nan nan nan nan nan nan nan 5 1 3 5 9 14 14 13 11 11 9 10 8 7 nan nan nan 10 6 7 7 5 4 4 4 4 4 4 5 7
nan nan nan nan nan nan nan nan nan nan nan nan nan nan nan nan nan nan nan nan 15 16 9 9 11 14 8 9 12 15 18 13 11 11 11 11 13 12 12 12 13 13 11 11 11 9 6 nan nan nan nan nan nan nan nan nan 6 2 5 6 10 13 13 13 11 10 10 9 8 7 nan nan 6 7 5 5 5 4 4 4 4 5 4 5 6 8
nan nan nan nan nan nan nan nan nan nan nan nan nan nan nan nan nan nan nan nan nan nan nan 21 25 21 11 9 6 10 13 11 10 11 10 9 9 9 8 9 14 15 14 13 11 8 6 9 nan nan nan nan nan nan nan nan 6 4 3 6 9 12 12 12 10 8 9 9 8 8 nan nan 8 8 3 4 4 4 5 4 4 5 5 5 6 8
nan nan nan nan nan nan nan nan nan nan nan nan nan nan nan nan nan nan nan nan nan nan 17 25 26 16 9 5 7 14 14 11 11 12 12 11 9 9 8 11 12 12 13 15 13 10 8 8 9 nan nan nan nan nan nan nan 7 6 5 7 10 12 12 10 9 8 7 7 6 7 nan nan 7 6 2 4 4 4 4 5 5 5 5 5 6 8
nan nan nan nan nan nan nan nan nan nan nan nan nan nan nan nan nan nan nan nan nan 25 23 28 23 20 19 11 7 11 12 12 10 10 11 11 9 10 10 12 12 12 12 11 10 9 8 8 10 10 nan nan nan nan nan nan 9 8 6 7 9 12 12 10 9 8 7 7 8 6 5 nan nan 5 7 5 3 3 5 5 5 5 6 6 5 7
nan nan nan nan nan nan nan nan nan nan nan nan nan nan nan nan nan nan nan nan nan nan 24 nan 21 25 24 13 9 10 10 10 8 8 10 10 11 12 12 12 10 10 12 11 11 9 8 8 11 12 11 10 nan nan nan nan nan 9 7 7 9 12 11 10 9 8 7 6 8 7 7 nan nan nan 6 5 4 3 3 4 5 5 6 6 6 5
nan nan nan nan nan nan nan nan nan nan nan nan nan nan nan nan nan nan nan nan nan nan nan nan nan nan 24 17 10 13 12 8 3 11 13 12 12 12 13 12 9 8 10 10 9 9 8 8 10 10 10 9 12 nan nan nan nan 10 8 8 10 11 10 10 8 7 7 7 7 6 6 6 nan nan nan 6 4 3 3 3 6 5 5 5 5 5
nan nan nan nan nan nan nan nan nan nan nan nan nan nan nan nan nan nan nan nan nan nan nan nan nan nan nan nan 24 17 12 5 7 12 15 14 13 11 11 10 9 8 7 6 9 11 11 10 10 10 11 10 10 10 nan 10 13 12 10 9 9 10 11 10 8 7 6 6 6 6 nan 6 nan 8 nan nan 4 3 3 2 4 5 5 5 5 5
nan nan nan nan nan nan nan nan nan nan nan nan nan nan nan nan nan nan nan nan nan nan nan nan nan nan nan nan 26 24 11 10 10 2 1 6 7 8 8 9 9 9 9 8 9 12 12 11 11 12 12 11 10 8 9 9 12 13 11 9 8 9 11 10 8 7 5 5 5 4 nan 6 nan nan nan nan nan 5 4 2 3 4 4 5 4 5
nan nan nan nan nan nan nan nan nan nan nan nan nan nan nan nan nan nan nan nan nan nan nan nan nan nan nan nan 24 17 12 14 12 9 7 8 11 10 9 9 9 9 10 10 11 11 13 13 11 12 12 12 11 10 11 8 10 12 12 11 9 10 11 10 8 7 6 6 5 5 nan nan nan nan nan nan 4 nan 1 2 2 3 4 5 5 5
nan nan nan nan nan nan nan nan nan nan nan nan nan nan nan nan nan nan nan nan nan nan nan nan nan nan nan nan nan 14 10 6 9 9 8 10 11 10 9 9 8 7 8 10 11 11 13 12 12 13 12 11 11 10 12 10 9 9 12 12 10 8 10 10 8 6 6 6 5 4 nan nan nan nan nan nan nan nan nan 2 2 3 3 4 4 4
nan nan nan nan nan nan nan nan nan nan nan nan nan nan nan nan nan nan nan nan nan nan nan nan nan nan nan nan nan 19 11 9 13 10 9 11 13 12 9 7 7 7 7 8 10 11 11 11 11 12 11 10 9 10 11 10 9 8 9 11 11 8 9 11 9 7 7 5 5 6 nan nan 5 nan nan nan nan nan nan nan 2 1 1 2 2 3
nan nan nan nan nan nan nan nan nan nan nan nan nan nan nan nan nan nan nan nan nan nan nan nan nan nan nan nan nan 17 14 14 14 11 12 13 11 12 11 8 6 7 7 8 9 9 9 10 11 11 11 9 8 10 11 10 10 8 8 10 10 10 8 10 9 9 7 7 6 nan nan nan 7 nan nan nan nan nan nan nan 3 2 3 2 3 3
nan nan nan nan nan nan nan nan nan nan nan nan nan nan nan nan nan nan nan nan nan nan nan nan nan nan nan nan nan nan 18 19 16 12 15 15 13 14 14 12 9 7 8 8 8 8 8 10 11 10 9 9 9 12 11 12 11 9 8 9 10 10 8 9 10 10 9 9 8 nan nan nan 7 6 nan nan nan nan nan nan 4 3 3 3 3 4
nan nan nan nan nan nan nan nan nan nan nan nan nan nan nan nan nan nan nan nan nan nan nan nan nan nan nan nan nan nan nan nan 17 16 16 14 16 19 15 14 12 8 7 7 8 8 9 10 11 10 10 9 9 11 12 13 13 12 10 9 9 11 10 8 9 10 11 11 10 nan nan nan nan 6 nan nan nan nan nan nan 6 5 3 3 4 4
nan nan nan nan nan nan nan nan nan nan nan nan nan nan nan nan nan nan nan nan nan nan nan nan nan nan nan nan nan nan nan nan nan 12 15 15 22 23 19 16 13 10 10 10 8 8 10 11 11 9 8 9 10 12 12 12 12 12 10 9 9 10 10 9 10 12 13 12 10 8 nan nan nan 6 5 nan nan nan nan nan nan 8 7 5 5 5
nan nan nan nan nan nan nan nan nan nan nan nan nan nan nan nan nan nan nan nan nan nan nan nan nan nan nan nan nan nan nan nan nan nan 9 15 25 24 21 17 14 10 9 9 7 7 8 10 10 8 7 7 8 9 11 12 13 11 9 8 8 8 9 11 13 15 15 12 12 11 nan nan nan nan 7 nan nan nan nan nan nan 8 6 7 7 6
nan nan nan nan nan nan nan nan nan nan nan nan nan nan nan nan nan nan nan nan nan nan nan nan nan nan nan nan nan nan nan nan nan 4 5 10 15 18 17 17 18 15 10 9 7 8 11 10 10 9 7 7 8 8 10 12 11 13 10 8 6 7 11 13 12 12 12 11 12 11 10 nan nan nan nan nan nan nan nan nan nan nan 8 6 8 7
nan nan nan nan nan nan nan nan nan nan nan nan nan nan nan nan nan nan nan nan nan nan nan nan nan nan nan 24 33 33 nan nan nan nan 2 6 8 9 13 18 18 15 12 11 11 13 14 9 7 7 7 6 6 7 9 10 11 11 9 7 6 7 8 10 9 10 11 13 12 11 9 nan nan nan nan nan nan nan nan nan nan nan nan 9 8 8
nan nan nan nan nan nan nan nan nan nan nan nan nan nan nan nan nan nan nan nan nan nan nan nan nan nan 27 30 31 28 31 nan nan nan nan 5 7 6 8 14 17 14 12 12 12 14 11 7 6 7 8 8 7 6 7 9 9 10 9 7 5 4 5 6 8 8 10 12 13 11 11 11 nan nan nan nan nan nan nan nan nan nan nan nan 7 8
nan nan nan nan nan nan nan nan nan nan nan nan nan nan nan nan nan nan nan nan nan nan nan nan nan nan nan 35 34 33 32 nan nan nan nan 4 6 6 6 10 14 15 14 9 8 8 6 6 6 6 7 7 7 6 6 8 9 10 10 8 4 3 1 3 5 7 9 10 12 12 13 13 13 nan nan nan nan nan nan nan 6 7 nan nan 7 7
nan nan nan nan nan nan nan nan nan nan nan nan nan nan nan nan nan nan nan nan nan nan nan nan nan nan nan 43 38 32 32 38 38 39 39 33 29 19 5 7 11 13 12 9 9 11 9 6 6 6 6 7 7 6 5 7 9 10 10 8 6 5 2 3 6 8 8 7 8 11 14 14 14 12 nan nan nan nan nan nan nan 7 6 6 7 6
nan nan nan nan nan nan nan nan nan nan nan nan nan nan nan nan nan nan nan nan nan nan nan nan nan nan nan nan 43 37 37 43 45 48 45 39 33 31 25 15 9 10 14 15 16 17 17 13 8 5 4 4 5 7 7 7 8 10 10 9 7 5 4 4 6 6 7 7 7 10 11 11 13 12 10 nan nan nan nan nan nan nan 5 6 6 6
nan nan nan nan nan nan nan nan nan nan nan nan nan nan nan nan nan nan nan nan nan nan nan nan nan nan nan nan 49 42 41 43 48 49 48 41 38 31 21 18 16 12 13 15 17 20 19 15 11 9 8 6 7 9 8 7 8 9 9 9 7 5 4 4 5 4 5 7 8 9 7 9 11 10 10 10 nan nan nan nan nan nan nan 6 5 6
nan nan nan nan nan nan nan nan nan nan nan nan nan nan nan nan nan nan nan nan nan nan nan nan nan nan nan nan nan 46 41 45 50 54 51 48 44 38 28 22 24 26 23 21 22 20 21 21 14 11 11 10 9 10 10 8 8 9 9 8 7 6 4 4 5 4 5 6 6 8 7 8 9 10 11 12 13 nan nan nan nan nan nan nan nan 5
nan nan nan nan nan nan nan nan nan nan nan nan nan nan nan nan nan nan nan nan nan nan nan nan nan nan nan nan 51 44 37 41 52 51 51 53 45 39 41 44 46 51 51 51 52 51 45 38 34 27 19 13 11 10 10 10 10 11 10 8 9 8 6 6 5 4 4 5 5 6 7 8 10 12 13 15 16 16 nan nan nan nan nan nan nan nan
nan nan nan nan nan nan nan nan nan nan nan nan nan nan nan nan nan nan nan nan nan nan nan nan nan nan nan 53 52 47 39 40 48 47 51 52 49 47 48 48 45 49 53 54 53 53 53 51 49 49 41 34 28 22 16 14 14 15 14 13 12 12 9 9 7 4 2 2 3 4 7 11 13 14 15 16 17 17 16 nan nan nan nan nan nan nan
nan nan nan nan nan nan nan nan nan nan nan nan nan nan nan nan nan nan nan nan nan nan nan nan nan nan 54 53 52 50 nan 40 45 nan 50 58 55 52 52 50 47 48 50 53 55 55 52 52 52 52 52 51 48 38 30 28 23 18 17 16 16 15 14 13 9 6 3 1 2 5 9 12 14 15 16 16 16 16 16 17 nan nan nan nan nan nan
nan nan nan nan nan nan nan nan nan nan nan nan nan nan nan nan nan nan nan nan nan nan nan nan nan nan 56 55 53 51 48 nan 49 nan 51 50 57 57 52 50 46 45 48 52 55 56 54 54 54 53 53 53 50 51 45 37 35 33 28 24 21 20 20 16 13 10 6 3 5 7 9 12 13 15 14 14 15 16 16 17 18 18 nan nan nan nan
nan nan nan nan nan nan nan nan nan nan nan nan nan nan nan nan nan nan nan nan nan nan nan nan nan nan 56 61 55 57 58 nan nan nan nan 44 54 58 55 50 48 47 47 51 55 57 57 56 56 55 52 50 51 50 49 47 42 38 35 34 29 25 24 20 16 13 10 9 10 9 6 7 9 12 13 14 14 14 16 18 18 19 18 18 16 16
nan nan nan nan nan nan nan nan nan nan nan nan nan nan nan nan nan nan nan nan nan nan nan nan nan nan nan nan nan 60 60 56 nan nan nan nan 48 59 60 54 51 50 49 49 53 57 58 56 54 55 55 51 49 49 50 50 46 43 40 36 31 31 27 22 19 17 15 14 11 4 3 6 7 9 12 13 14 15 17 17 17 17 17 16 17 18
nan nan nan nan nan nan nan nan nan nan nan nan nan nan nan nan nan nan nan nan nan nan nan nan nan nan nan 67 nan nan 61 nan nan nan nan nan 45 55 60 57 55 53 49 49 51 53 57 59 57 54 54 52 52 48 44 43 43 41 39 38 34 28 26 23 21 18 15 12 8 4 4 5 6 8 11 15 16 17 16 15 14 14 16 18 19 18
nan nan nan nan nan nan nan nan nan nan nan nan nan nan nan nan nan nan nan nan nan nan nan nan nan nan 65 65 66 63 58 57 58 nan nan nan 50 47 52 56 58 57 54 nan 55 55 55 57 60 59 56 53 50 47 39 36 35 38 37 38 37 32 25 23 21 19 15 11 7 7 9 9 5 5 10 15 17 16 14 13 14 14 16 17 16 16
nan nan nan nan nan nan nan nan nan nan nan nan nan nan nan nan nan nan nan nan nan nan nan nan nan nan nan nan 70 69 61 56 62 nan nan nan nan 51 51 56 57 56 57 nan nan 53 53 53 52 51 50 46 46 48 46 35 29 32 40 42 39 38 34 26 23 19 15 10 6 5 7 8 6 5 8 13 16 14 12 12 13 14 16 16 16 16
nan nan nan nan nan nan nan nan nan nan nan nan nan nan nan nan nan nan nan nan nan nan nan nan nan nan nan nan nan nan nan nan nan nan nan nan nan nan nan 57 60 57 56 55 nan 50 51 50 46 44 43 45 46 49 50 46 39 36 37 36 35 36 37 35 26 18 14 10 8 7 7 9 9 6 6 10 13 13 12 13 15 17 19 17 15 15
nan nan nan nan nan nan nan nan nan nan nan nan nan nan nan nan nan nan nan nan 81 nan nan nan nan nan nan nan nan nan nan nan nan nan nan nan nan nan nan nan nan 61 60 nan nan nan nan nan 43 41 45 50 50 nan 50 46 41 40 38 36 33 33 34 33 28 22 15 12 12 13 13 14 13 10 9 10 11 13 16 17 19 18 19 17 16 14
nan nan nan nan nan nan nan nan nan nan nan nan nan nan nan nan nan nan nan nan nan nan nan nan nan nan nan nan nan nan nan nan nan nan nan nan nan nan nan nan nan nan nan nan nan nan nan nan nan nan nan nan nan 50 48 42 39 38 38 38 35 33 30 28 25 21 18 18 19 20 19 19 17 14 11 9 10 15 17 18 18 20 20 19 18 16
nan nan nan nan nan nan nan nan nan nan nan nan nan nan nan nan nan nan nan nan nan nan nan nan nan nan nan nan nan nan nan nan nan nan nan nan nan nan nan nan nan nan nan nan nan nan nan nan nan nan nan nan nan nan 43 39 37 36 35 39 43 37 28 24 23 21 20 20 20 20 21 22 20 16 13 10 12 16 17 21 22 21 20 20 20 20
nan nan nan nan nan nan nan nan nan nan nan nan nan nan nan nan nan nan nan nan nan nan nan nan nan nan nan nan nan nan nan nan nan nan nan nan nan nan nan nan nan nan nan nan nan nan nan nan nan nan nan nan nan 47 44 42 40 38 34 31 35 39 38 32 25 24 23 22 21 19 20 23 22 17 13 14 17 18 20 21 20 20 20 20 21 21
nan nan nan nan nan nan nan nan nan nan 26 nan nan nan nan nan nan nan nan nan nan nan nan nan nan nan nan nan nan nan nan nan nan nan nan nan nan nan nan nan nan nan nan nan nan nan nan nan nan nan nan nan nan nan 49 45 40 37 32 29 29 33 35 34 31 27 25 24 23 20 19 20 23 21 19 20 21 21 19 19 18 19 18 20 21 19
nan nan nan nan nan nan nan nan nan nan nan nan nan nan nan nan nan nan nan nan nan nan nan nan nan nan nan nan nan nan nan nan nan nan nan nan nan nan nan nan nan nan nan nan nan nan nan nan nan nan nan nan nan nan nan 49 43 39 35 32 33 35 36 33 30 28 26 23 21 18 16 18 19 22 23 24 23 21 20 21 20 19 20 19 19 18
nan nan nan nan nan nan nan nan nan nan nan nan nan nan nan nan nan nan nan nan nan nan nan nan nan nan nan nan nan nan nan nan nan nan nan nan nan nan nan nan nan nan nan nan nan nan nan nan nan nan nan nan nan nan nan 49 47 42 36 34 37 39 38 37 36 32 28 25 22 17 15 17 19 20 23 24 24 23 22 23 22 22 21 20 19 19
nan nan nan nan nan nan nan nan nan nan nan nan nan nan nan nan nan nan nan nan nan nan nan nan nan nan nan nan nan nan nan nan nan nan nan nan nan nan nan nan nan nan nan nan nan nan nan nan nan nan nan nan nan nan nan nan 48 46 39 35 39 42 42 41 40 38 34 30 25 20 18 18 20 21 23 25 25 24 23 23 25 24 23 22 21 20
nan nan nan nan nan nan nan nan nan nan nan nan nan nan nan nan nan nan nan nan nan nan nan nan nan nan nan nan nan nan nan nan nan nan nan nan nan nan nan nan nan nan nan nan nan nan nan nan nan nan nan nan nan nan nan nan nan 47 43 41 42 44 44 43 43 42 39 36 30 24 20 20 20 21 22 23 25 23 23 24 26 25 26 25 22 20
nan nan nan nan nan nan nan nan nan nan nan nan nan nan nan nan nan nan nan nan nan nan nan nan nan nan nan nan nan nan nan nan nan nan nan nan nan nan nan nan nan nan nan nan nan nan nan nan nan nan nan nan nan nan nan nan nan nan 47 46 46 46 45 44 42 42 42 39 36 29 23 20 21 21 22 22 24 25 26 28 28 27 27 26 23 21
nan nan nan nan nan nan nan nan nan nan nan nan nan nan nan nan nan nan nan nan nan nan nan nan nan nan nan nan nan nan nan nan nan nan nan nan nan nan nan nan nan nan nan nan nan nan nan nan nan nan nan nan nan nan nan nan nan nan 49 49 48 46 44 42 43 44 44 43 41 35 28 23 17 17 22 22 23 26 27 29 29 28 27 26 24 23
nan nan nan nan nan nan nan nan nan nan nan nan nan nan nan nan nan nan nan nan nan nan nan nan nan nan nan nan nan nan nan nan nan nan nan nan nan nan nan nan nan nan nan nan nan nan nan nan nan nan nan nan nan nan nan nan nan nan 50 49 51 52 50 48 47 46 45 44 43 39 33 28 26 24 24 24 24 24 25 27 29 28 27 25 27 25
nan nan nan nan nan nan nan nan nan nan nan nan nan nan nan nan nan nan nan nan nan nan nan nan nan nan nan nan nan nan nan nan nan nan nan nan nan nan nan nan nan nan nan nan nan nan nan nan nan nan nan nan nan nan nan nan nan nan 49 50 51 52 51 50 49 47 47 47 46 44 38 34 31 29 28 27 27 27 34 39 34 27 27 27 23 21
nan nan nan nan nan nan nan nan nan nan nan nan nan nan nan nan nan nan nan nan nan nan nan nan nan nan nan nan nan nan nan nan nan nan nan nan nan nan nan nan nan nan nan nan nan nan nan nan nan nan nan nan nan nan nan 58 54 51 50 50 50 50 49 49 49 48 49 49 49 47 42 39 37 34 32 31 31 32 33 33 38 43 38 31 27 25
Wind_Direction
nan nan nan nan nan nan nan nan nan nan nan nan nan nan nan nan nan nan nan 265 320 296 330 12 53 35 33 11 3 352 341 333 315 308 292 295 303 310 317 318 321 329 331 327 356 353 nan nan nan nan nan nan 306 289 301 293 288 325 152 155 158 163 166 168 166 158 168 171 156 151 140 138 139 129 128 111 112 105 100 80 78 84 95 104 110 128
nan nan nan nan nan nan nan nan nan nan nan nan nan nan nan nan nan nan nan 271 309 288 268 319 329 35 31 5 349 340 333 338 327 313 306 299 298 305 325 322 320 322 306 328 347 341 nan 315 nan nan nan nan nan nan 293 285 288 232 165 158 166 168 166 163 166 160 163 170 158 151 nan nan nan 137 124 112 110 96 97 84 82 90 106 118 129 132
nan nan nan nan nan nan nan nan nan nan nan nan nan nan nan nan nan nan nan nan 305 286 292 342 334 360 6 340 333 340 344 332 328 325 324 310 300 303 323 322 313 311 326 339 347 346 317 nan nan nan nan nan nan nan nan nan 278 228 168 169 173 170 169 164 167 166 160 168 159 149 nan nan nan 140 104 102 100 103 94 91 95 107 113 123 134 132
nan nan nan nan nan nan nan nan nan nan nan nan nan nan nan nan nan nan nan nan 236 232 238 312 259 231 248 295 326 341 328 316 326 319 312 308 313 319 330 321 317 324 328 337 343 351 327 nan nan nan nan nan nan nan nan nan 295 224 175 177 175 174 174 171 169 162 160 162 154 141 nan nan 138 136 120 107 113 110 111 92 105 123 125 126 132 129
nan nan nan nan nan nan nan nan nan nan nan nan nan nan nan nan nan nan nan nan nan nan nan 233 227 230 242 277 307 316 304 296 314 314 307 307 305 311 309 319 328 330 330 330 336 345 336 320 nan nan nan nan nan nan nan nan 280 216 206 186 178 179 179 176 175 164 168 172 162 143 nan nan 144 176 174 130 121 98 94 105 116 115 131 130 129 126
nan nan nan nan nan nan nan nan nan nan nan nan nan nan nan nan nan nan nan nan nan nan 245 263 229 220 227 255 309 288 286 307 307 319 322 317 308 287 297 319 322 327 328 330 333 343 344 319 312 nan nan nan nan nan nan nan 276 257 216 196 181 183 184 180 178 173 174 164 161 152 nan nan 143 155 145 74 55 92 100 90 105 131 126 123 128 128
nan nan nan nan nan nan nan nan nan nan nan nan nan nan nan nan nan nan nan nan nan 230 220 213 249 228 225 219 238 272 296 305 292 326 326 322 322 307 299 299 306 323 329 332 325 324 333 323 320 330 nan nan nan nan nan nan 273 272 247 211 190 187 187 186 182 177 177 170 168 161 143 nan nan 129 126 120 104 88 111 130 115 123 130 121 117 122
nan nan nan nan nan nan nan nan nan nan nan nan nan nan nan nan nan nan nan nan nan nan 246 nan 230 242 234 216 220 239 272 289 296 336 343 343 337 327 316 310 305 321 331 330 332 325 327 329 323 332 339 332 nan nan nan nan nan 278 266 235 201 192 193 188 191 179 172 172 178 174 154 nan nan nan 131 124 119 125 140 137 118 131 125 120 121 121
nan nan nan nan nan nan nan nan nan nan nan nan nan nan nan nan nan nan nan nan nan nan nan nan nan nan 225 212 240 253 257 262 350 3 5 1 352 342 334 325 312 316 328 333 335 337 320 318 311 312 321 326 329 nan nan nan nan 267 260 246 213 201 201 195 201 189 173 178 181 178 152 130 nan nan nan 151 148 148 149 142 141 136 129 124 125 128
nan nan nan nan nan nan nan nan nan nan nan nan nan nan nan nan nan nan nan nan nan nan nan nan nan nan nan nan 238 248 263 294 48 30 18 8 354 346 343 336 320 298 299 323 333 332 320 305 296 298 298 314 332 335 nan 291 273 269 257 254 237 212 203 205 208 198 183 182 187 180 nan 116 nan 144 nan nan 155 155 164 154 149 148 147 137 137 134
nan nan nan nan nan nan nan nan nan nan nan nan nan nan nan nan nan nan nan nan nan nan nan nan nan nan nan nan 252 256 280 338 30 59 50 17 358 346 344 340 329 313 305 294 305 315 310 299 292 288 305 319 322 326 327 306 288 277 270 263 252 228 211 211 217 211 190 182 189 172 nan 117 nan nan nan nan nan 182 175 170 163 165 148 149 144 149
nan nan nan nan nan nan nan nan nan nan nan nan nan nan nan nan nan nan nan nan nan nan nan nan nan nan nan nan 245 277 310 354 354 340 337 7 11 3 348 342 339 325 306 296 295 304 300 287 296 302 312 319 325 332 339 325 297 286 276 266 258 235 223 215 220 220 201 185 182 175 nan nan nan nan nan nan 163 nan 166 164 167 171 179 152 162 162
nan nan nan nan nan nan nan nan nan nan nan nan nan nan nan nan nan nan nan nan nan nan nan nan nan nan nan nan nan 276 285 320 340 342 334 348 4 6 5 355 331 313 298 295 298 299 297 298 305 316 316 318 324 335 340 329 309 291 279 278 271 252 235 227 226 226 215 195 187 179 nan nan nan nan nan nan nan nan nan 180 191 199 179 168 173 161
nan nan nan nan nan nan nan nan nan nan nan nan nan nan nan nan nan nan nan nan nan nan nan nan nan nan nan nan nan 282 309 316 322 317 310 334 350 353 359 348 322 309 302 296 294 295 300 300 303 313 315 318 321 327 328 323 306 282 271 275 277 264 242 232 229 227 221 203 192 188 nan nan 165 nan nan nan nan nan nan nan 207 215 192 183 156 173
nan nan nan nan nan nan nan nan nan nan nan nan nan nan nan nan nan nan nan nan nan nan nan nan nan nan nan nan nan 279 295 301 303 310 291 301 320 332 328 318 318 310 304 287 284 296 304 305 305 306 317 320 320 319 321 315 302 284 268 269 272 259 241 237 236 228 230 215 201 nan nan nan 172 nan nan nan nan nan nan nan 193 182 199 200 174 174
nan nan nan nan nan nan nan nan nan nan nan nan nan nan nan nan nan nan nan nan nan nan nan nan nan nan nan nan nan nan 267 279 285 294 291 286 283 277 278 307 320 325 314 296 286 288 300 302 301 295 307 322 319 321 324 325 308 294 272 263 265 262 247 234 236 230 235 230 215 nan nan nan 176 179 nan nan nan nan nan nan 196 192 194 191 199 182
nan nan nan nan nan nan nan nan nan nan nan nan nan nan nan nan nan nan nan nan nan nan nan nan nan nan nan nan nan nan nan nan 266 276 288 298 291 284 296 310 315 315 321 313 299 284 291 290 298 299 304 319 324 323 332 333 320 306 279 258 252 251 241 229 226 232 231 233 228 nan nan nan nan 189 nan nan nan nan nan nan 192 195 171 196 208 203
nan nan nan nan nan nan nan nan nan nan nan nan nan nan nan nan nan nan nan nan nan nan nan nan nan nan nan nan nan nan nan nan nan 304 298 292 281 291 300 302 307 321 337 335 314 288 287 290 300 301 301 320 330 330 330 329 319 307 290 275 260 249 253 235 222 222 223 228 231 224 nan nan nan 197 193 nan nan nan nan nan nan 190 193 189 207 216
nan nan nan nan nan nan nan nan nan nan nan nan nan nan nan nan nan nan nan nan nan nan nan nan nan nan nan nan nan nan nan nan nan nan 297 266 268 287 297 300 293 294 299 308 311 298 289 285 289 299 314 318 324 320 319 315 315 312 304 296 283 269 258 249 224 216 215 218 217 222 nan nan nan nan 201 nan nan nan nan nan nan 200 194 197 207 218
nan nan nan nan nan nan nan nan nan nan nan nan nan nan nan nan nan nan nan nan nan nan nan nan nan nan nan nan nan nan nan nan nan 289 325 286 286 289 287 284 277 268 281 310 316 328 325 307 297 305 302 308 317 308 303 312 314 326 324 319 304 271 252 250 246 234 226 220 216 219 225 nan nan nan nan nan nan nan nan nan nan nan 208 206 213 219
nan nan nan nan nan nan nan nan nan nan nan nan nan nan nan nan nan nan nan nan nan nan nan nan nan nan nan 183 185 185 nan nan nan nan 329 290 305 312 287 277 278 276 268 278 295 316 324 309 287 289 280 276 284 275 279 298 319 323 320 333 330 305 283 276 269 255 237 228 220 220 229 nan nan nan nan nan nan nan nan nan nan nan nan 214 217 223
nan nan nan nan nan nan nan nan nan nan nan nan nan nan nan nan nan nan nan nan nan nan nan nan nan nan 194 200 194 193 195 nan nan nan nan 333 322 327 282 274 277 273 270 273 288 302 311 310 278 259 254 252 263 269 284 296 302 311 326 337 345 330 304 291 270 256 246 237 230 224 223 229 nan nan nan nan nan nan nan nan nan nan nan nan 222 231
nan nan nan nan nan nan nan nan nan nan nan nan nan nan nan nan nan nan nan nan nan nan nan nan nan nan nan 195 194 202 204 nan nan nan nan 40 358 325 319 299 281 280 278 278 285 279 293 326 305 263 261 271 284 283 286 285 298 307 319 327 343 353 347 259 258 245 237 236 235 231 223 224 228 nan nan nan nan nan nan nan 206 209 nan nan 225 232
nan nan nan nan nan nan nan nan nan nan nan nan nan nan nan nan nan nan nan nan nan nan nan nan nan nan nan 194 197 202 207 208 202 204 205 197 193 192 211 288 296 282 269 255 240 232 237 272 292 256 252 262 267 267 277 269 278 286 299 319 332 349 322 229 217 221 224 226 235 239 232 226 225 229 nan nan nan nan nan nan nan 213 210 211 217 233
nan nan nan nan nan nan nan nan nan nan nan nan nan nan nan nan nan nan nan nan nan nan nan nan nan nan nan nan 196 201 209 210 206 205 210 202 194 204 201 194 225 256 255 237 226 228 231 242 262 259 252 261 269 259 249 254 264 275 293 307 323 322 303 257 229 220 215 213 223 237 240 239 233 231 230 nan nan nan nan nan nan nan 217 219 215 223
nan nan nan nan nan nan nan nan nan nan nan nan nan nan nan nan nan nan nan nan nan nan nan nan nan nan nan nan 191 200 207 210 207 205 209 208 206 202 216 220 196 215 240 234 226 229 239 250 254 244 244 247 259 260 253 249 252 263 279 302 298 288 275 272 250 247 236 221 216 219 236 242 239 234 233 227 nan nan nan nan nan nan nan 219 226 231
nan nan nan nan nan nan nan nan nan nan nan nan nan nan nan nan nan nan nan nan nan nan nan nan nan nan nan nan nan 196 200 209 208 206 202 207 206 206 208 222 211 200 201 204 208 213 223 231 238 236 246 251 253 252 249 251 247 246 262 284 276 261 274 273 260 255 251 242 228 218 216 230 233 231 226 226 222 nan nan nan nan nan nan nan nan 233
nan nan nan nan nan nan nan nan nan nan nan nan nan nan nan nan nan nan nan nan nan nan nan nan nan nan nan nan 187 191 195 206 212 202 202 206 204 204 214 217 212 210 212 210 209 207 206 206 203 198 201 213 222 229 238 246 244 242 250 259 253 250 253 247 256 251 250 244 235 218 215 218 225 223 223 221 221 220 nan nan nan nan nan nan nan nan
nan nan nan nan nan nan nan nan nan nan nan nan nan nan nan nan nan nan nan nan nan nan nan nan nan nan nan 192 189 195 200 202 213 209 200 201 204 205 210 217 217 213 211 208 206 207 208 207 206 202 197 192 190 192 202 219 227 231 230 230 237 242 250 250 247 246 245 240 240 228 217 217 218 220 221 221 222 221 218 nan nan nan nan nan nan nan
nan nan nan nan nan nan nan nan nan nan nan nan nan nan nan nan nan nan nan nan nan nan nan nan nan nan 200 198 193 196 nan 202 207 nan 211 197 198 205 210 216 222 222 216 211 207 203 203 205 207 208 206 201 196 193 196 201 207 219 227 228 231 234 238 240 238 238 239 236 239 228 221 219 218 221 224 225 223 222 219 218 nan nan nan nan nan nan
nan nan nan nan nan nan nan nan nan nan nan nan nan nan nan nan nan nan nan nan nan nan nan nan nan nan 199 199 197 197 198 nan 203 nan 219 204 195 197 204 209 216 220 219 214 209 205 202 203 205 207 208 206 203 198 199 204 204 203 206 214 218 224 229 232 230 229 228 222 235 234 228 223 221 222 226 226 226 224 221 219 219 219 nan nan nan nan
nan nan nan nan nan nan nan nan nan nan nan nan nan nan nan nan nan nan nan nan nan nan nan nan nan nan 199 196 199 200 201 nan nan nan nan 206 200 197 200 202 204 209 213 212 209 205 203 203 203 205 206 205 208 205 202 203 207 210 209 207 209 215 219 223 223 226 221 221 226 230 235 239 237 233 230 229 228 227 226 224 221 219 221 220 221 222
nan nan nan nan nan nan nan nan nan nan nan nan nan nan nan nan nan nan nan nan nan nan nan nan nan nan nan nan nan 201 204 205 nan nan nan nan 200 196 198 201 202 201 203 208 210 207 203 203 203 204 204 202 205 210 208 200 204 214 212 210 211 212 214 213 216 216 218 223 230 242 332 333 310 277 252 241 234 229 228 228 226 223 223 224 224 225
nan nan nan nan nan nan nan nan nan nan nan nan nan nan nan nan nan nan nan nan nan nan nan nan nan nan nan 201 nan nan 205 nan nan nan nan nan 202 196 195 198 201 202 205 207 208 208 204 201 201 203 202 205 202 207 217 213 198 203 220 221 217 221 215 215 212 215 218 226 229 255 280 289 306 288 260 245 238 234 232 229 226 225 224 225 227 228
nan nan nan nan nan nan nan nan nan nan nan nan nan nan nan nan nan nan nan nan nan nan nan nan nan nan 201 202 200 200 206 207 208 nan nan nan 211 208 200 200 200 200 202 nan 208 208 206 202 199 202 201 201 205 205 215 217 208 195 203 219 224 220 226 220 218 218 224 228 223 232 244 248 252 263 256 246 239 236 233 229 223 224 224 226 229 229
nan nan nan nan nan nan nan nan nan nan nan nan nan nan nan nan nan nan nan nan nan nan nan nan nan nan nan nan 200 201 203 208 210 nan nan nan nan 208 206 205 204 203 203 nan nan 204 207 207 206 204 201 201 206 209 211 214 214 211 203 206 217 223 219 224 224 219 223 221 216 219 239 250 244 240 252 250 241 234 229 226 224 223 222 221 221 220
nan nan nan nan nan nan nan nan nan nan nan nan nan nan nan nan nan nan nan nan nan nan nan nan nan nan nan nan nan nan nan nan nan nan nan nan nan nan nan 203 204 205 202 201 nan 200 201 205 205 206 208 205 206 211 212 208 209 211 212 207 206 215 224 219 214 220 216 212 212 212 220 235 238 230 244 252 244 233 226 224 223 221 221 217 216 217
nan nan nan nan nan nan nan nan nan nan nan nan nan nan nan nan nan nan nan nan 215 nan nan nan nan nan nan nan nan nan nan nan nan nan nan nan nan nan nan nan nan 202 201 nan nan nan nan nan 205 211 211 203 202 nan 213 205 205 209 211 210 208 216 219 220 208 202 208 211 220 222 220 223 225 218 220 231 231 223 219 221 223 226 226 220 217 214
nan nan nan nan nan nan nan nan nan nan nan nan nan nan nan nan nan nan nan nan nan nan nan nan nan nan nan nan nan nan nan nan nan nan nan nan nan nan nan nan nan nan nan nan nan nan nan nan nan nan nan nan nan 213 215 203 198 207 211 212 212 211 212 208 204 198 198 208 217 221 223 223 220 213 211 219 223 221 220 221 224 227 229 225 222 219
nan nan nan nan nan nan nan nan nan nan nan nan nan nan nan nan nan nan nan nan nan nan nan nan nan nan nan nan nan nan nan nan nan nan nan nan nan nan nan nan nan nan nan nan nan nan nan nan nan nan nan nan nan nan 213 209 200 202 210 209 206 206 206 200 200 198 197 210 220 220 219 215 212 207 204 205 218 220 218 219 222 226 231 232 230 227
nan nan nan nan nan nan nan nan nan nan nan nan nan nan nan nan nan nan nan nan nan nan nan nan nan nan nan nan nan nan nan nan nan nan nan nan nan nan nan nan nan nan nan nan nan nan nan nan nan nan nan nan nan 212 212 208 204 201 203 200 199 199 198 202 205 199 202 208 211 213 212 208 210 214 209 209 219 222 219 220 221 223 227 232 233 233
nan nan nan nan nan nan nan nan nan nan 238 nan nan nan nan nan nan nan nan nan nan nan nan nan nan nan nan nan nan nan nan nan nan nan nan nan nan nan nan nan nan nan nan nan nan nan nan nan nan nan nan nan nan nan 214 211 206 204 201 193 188 191 191 191 199 201 201 207 209 208 210 212 212 212 210 213 222 227 224 222 223 223 225 227 233 237
nan nan nan nan nan nan nan nan nan nan nan nan nan nan nan nan nan nan nan nan nan nan nan nan nan nan nan nan nan nan nan nan nan nan nan nan nan nan nan nan nan nan nan nan nan nan nan nan nan nan nan nan nan nan nan 212 208 203 197 190 189 191 190 194 197 197 201 210 213 211 208 207 203 204 211 217 222 226 228 228 227 227 228 229 232 235
nan nan nan nan nan nan nan nan nan nan nan nan nan nan nan nan nan nan nan nan nan nan nan nan nan nan nan nan nan nan nan nan nan nan nan nan nan nan nan nan nan nan nan nan nan nan nan nan nan nan nan nan nan nan nan 216 211 205 197 188 192 194 194 195 197 199 202 206 208 206 201 201 204 210 219 225 224 223 227 231 232 232 232 235 235 235
nan nan nan nan nan nan nan nan nan nan nan nan nan nan nan nan nan nan nan nan nan nan nan nan nan nan nan nan nan nan nan nan nan nan nan nan nan nan nan nan nan nan nan nan nan nan nan nan nan nan nan nan nan nan nan nan 213 205 198 194 193 190 189 190 192 193 195 201 205 201 197 204 210 217 223 226 229 228 230 235 239 236 236 237 237 238
nan nan nan nan nan nan nan nan nan nan nan nan nan nan nan nan nan nan nan nan nan nan nan nan nan nan nan nan nan nan nan nan nan nan nan nan nan nan nan nan nan nan nan nan nan nan nan nan nan nan nan nan nan nan nan nan nan 211 204 197 189 185 185 188 190 191 190 193 201 202 199 203 210 217 222 228 231 235 237 242 244 243 241 239 239 241
nan nan nan nan nan nan nan nan nan nan nan nan nan nan nan nan nan nan nan nan nan nan nan nan nan nan nan nan nan nan nan nan nan nan nan nan nan nan nan nan nan nan nan nan nan nan nan nan nan nan nan nan nan nan nan nan nan nan 207 199 193 188 188 188 190 191 189 188 192 199 206 210 215 221 226 230 232 235 240 242 244 245 245 246 245 245
nan nan nan nan nan nan nan nan nan nan nan nan nan nan nan nan nan nan nan nan nan nan nan nan nan nan nan nan nan nan nan nan nan nan nan nan nan nan nan nan nan nan nan nan nan nan nan nan nan nan nan nan nan nan nan nan nan nan 209 205 203 200 196 193 194 193 189 186 190 196 205 210 219 231 232 235 236 237 239 243 247 247 249 252 251 249
nan nan nan nan nan nan nan nan nan nan nan nan nan nan nan nan nan nan nan nan nan nan nan nan nan nan nan nan nan nan nan nan nan nan nan nan nan nan nan nan nan nan nan nan nan nan nan nan nan nan nan nan nan nan nan nan nan nan 210 209 209 209 204 197 194 193 192 192 194 196 203 209 215 224 231 236 239 239 243 248 247 245 245 250 252 254
nan nan nan nan nan nan nan nan nan nan nan nan nan nan nan nan nan nan nan nan nan nan nan nan nan nan nan nan nan nan nan nan nan nan nan nan nan nan nan nan nan nan nan nan nan nan nan nan nan nan nan nan nan nan nan nan nan nan 211 209 209 209 207 201 197 197 197 198 198 197 203 210 213 220 225 231 236 239 233 221 229 241 247 247 257 268
nan nan nan nan nan nan nan nan nan nan nan nan nan nan nan nan nan nan nan nan nan nan nan nan nan nan nan nan nan nan nan nan nan nan nan nan nan nan nan nan nan nan nan nan nan nan nan nan nan nan nan nan nan nan nan 216 215 213 211 209 207 206 205 204 203 202 201 201 201 200 203 210 214 217 222 226 232 236 238 236 228 224 227 230 245 258